Retour au catalogue

STARLINK-36654

ActifCommunicationsVLEO
NORAD 67838·PAYLOAD·🇺🇸 United States

Lancé Feb 16, 2026 depuis Vandenberg Space Force Base

Loading…

Prochains Passages (prochaines 24 heures)

TLE

FraisSource: CelesTrak SupGP

Époque: Sep 15, 2026, 03:49 UTC

1 67838C 26033T   26258.15951389 -.00018532  00000+0 -67102-3 0  2587
2 67838  43.0027 277.1634 0001704 273.4358 296.7219 15.27597747    15

Suivez STARLINK-36654 en temps réel avec AllMySat

Download on the App Store